[[{"header":{"parameterUnit":"m.s-1","parameterCategory":1,"la1":30.2992,"la2":30.254,"lo1":-89.0895,"lo2":-89.0443,"dy":0.0025,"dx":0.0025,"nx":19,"ny":19,"refTime":"2026-03-16T03:00:00:Z","depth":0,"parameterNumber":2,"parameterNumberName":"U-component_of_WINDS"},"data":[0,0,0,0.0953,0.0954,0.0955,0.0955,0.0959,0.0959,0,0,0,0,0,0,0,0,0,0,0,0.0953,0.0953,0.0953,0.0954,0.0955,0.0955,0.0959,0.0959,0,0,0,0,0,0,0,0,0,0,0,0.0953,0.0953,0.0953,0.0954,0.0955,0.0955,0.0959,0.0957,0,0,0,0,0,0,0,0,0,0,0.0955,0.0955,0.0953,0.0953,0.0954,0.0955,0.0955,0.0957,0.0957,0.0958,0,0.0959,0,0.0959,0.0959,0.0959,0,0,0,0.0953,0.0955,0.0955,0.0953,0.0954,0.0955,0.0954,0.0957,0.0957,0.0959,0.0959,0.0959,0.0959,0.0959,0.0959,0.0967,0.0967,0,0,0.0953,0.0954,0.0955,0.0955,0.0955,0.0954,0.0954,0.0957,0.0958,0.0959,0.0959,0.0959,0.0959,0.0959,0.0967,0.0967,0,0,0,0.0953,0.0954,0.0954,0.0955,0.0955,0.0954,0.0954,0.0958,0.0958,0.0959,0.0959,0.0959,0.0959,0.0967,0.0967,0.097,0,0,0,0.0953,0.0954,0.0954,0.0954,0.0955,0.0956,0.0955,0.0958,0.0958,0.0959,0.0959,0.0959,0.0967,0.0967,0.0969,0.0971,0,0,0,0.0953,0.0954,0.0954,0.0954,0.0955,0.0956,0.0957,0.0958,0.0958,0.0959,0.0959,0.0967,0.0967,0.0969,0.097,0.0973,0,0,0,0.0953,0.0956,0.0954,0.0957,0.0955,0.0958,0.0957,0.0959,0.096,0.0959,0.0967,0.0967,0.0969,0.097,0.0973,0.0976,0.0977,0,0,0.0957,0.0956,0.0958,0.0956,0.096,0.0958,0.0962,0.0963,0.0963,0.0966,0.0966,0.097,0.097,0.0973,0.0983,0.0984,0,0,0,0.0959,0.0961,0.0962,0.0963,0.0964,0.0966,0.0966,0.0966,0.0969,0.0964,0.0971,0.0972,0.0974,0.0975,0.0975,0.0977,0.0967,0.0967,0.0967,0.0964,0.0965,0.0968,0.0969,0.097,0.0971,0.0973,0.0974,0.0973,0.0975,0.0976,0.0982,0.0983,0.0983,0.0985,0.0977,0.0977,0.0977,0.0977,0.097,0.0972,0.0972,0.0975,0.0976,0.0978,0.098,0.098,0.0983,0.0981,0.0982,0.0979,0.0984,0.0986,0.0977,0.0977,0.0977,0.0977,0.0977,0.0973,0.0974,0.0975,0.0978,0.0981,0.0982,0.0986,0.0986,0.0986,0.0988,0.0989,0.0989,0.0989,0.0988,0.0988,0.0988,0.0988,0.0988,0.0988,0.0975,0.0977,0.0979,0.0982,0.0984,0.0986,0.0989,0.0991,0.0993,0.0993,0.0993,0.0992,0.0985,0.0983,0.0989,0.0989,0.0989,0.0989,0.0989,0.098,0.0979,0.0983,0.0985,0.0989,0.0993,0.0994,0.0998,0.1,0.1002,0.1002,0.0996,0.0995,0.0995,0.0993,0.1001,0.1001,0.1001,0.1001,0.0982,0.0983,0.0988,0.0991,0.0994,0.0996,0.1002,0.1005,0.1007,0.1009,0.1008,0.1006,0.1005,0.1005,0.1004,0.1003,0.1013,0.1013,0.1013,0.0986,0.0986,0.0991,0.0993,0.0997,0.1,0.1006,0.101,0.1013,0.1013,0.101,0.1009,0.1006,0.1005,0.1004,0.1003,0.1,0,0]},{"header":{"parameterUnit":"m.s-1","parameterCategory":1,"la1":30.2992,"la2":30.254,"lo1":-89.0895,"lo2":-89.0443,"dy":0.0025,"dx":0.0025,"nx":19,"ny":19,"refTime":"2026-03-16T03:00:00:Z","depth":0,"parameterNumber":3,"parameterNumberName":"V-component_of_WINDS"},"data":[0,0,0,-3.4318,-3.4321,-3.4461,-3.4461,-3.4639,-3.4641,0,0,0,0,0,0,0,0,0,0,0,-3.4278,-3.4279,-3.4318,-3.4321,-3.4461,-3.4461,-3.4639,-3.4641,0,0,0,0,0,0,0,0,0,0,0,-3.4277,-3.4279,-3.4281,-3.4322,-3.446,-3.4461,-3.4639,-3.4533,0,0,0,0,0,0,0,0,0,0,-3.4397,-3.4362,-3.4279,-3.4281,-3.4323,-3.446,-3.4461,-3.4528,-3.454,-3.4576,0,-3.4611,0,-3.4629,-3.4653,-3.4654,0,0,0,-3.432,-3.4353,-3.4389,-3.4281,-3.4324,-3.446,-3.4397,-3.4534,-3.4548,-3.4592,-3.4613,-3.462,-3.4632,-3.4654,-3.4655,-3.4875,-3.4876,0,0,-3.4312,-3.4303,-3.438,-3.4398,-3.4378,-3.4393,-3.4402,-3.4542,-3.4565,-3.4614,-3.4624,-3.4635,-3.4655,-3.4657,-3.4874,-3.4875,0,0,0,-3.4291,-3.4298,-3.4331,-3.4391,-3.4416,-3.4397,-3.4407,-3.4558,-3.457,-3.4626,-3.4637,-3.4656,-3.4658,-3.4873,-3.4875,-3.492,0,0,0,-3.4286,-3.4286,-3.4328,-3.4324,-3.4413,-3.4489,-3.442,-3.456,-3.4576,-3.4636,-3.4656,-3.466,-3.4872,-3.4874,-3.4917,-3.4943,0,0,0,-3.4268,-3.4284,-3.4305,-3.4323,-3.4383,-3.4487,-3.4507,-3.4564,-3.4583,-3.4654,-3.4661,-3.4871,-3.4873,-3.4913,-3.4937,-3.4997,0,0,0,-3.4246,-3.4343,-3.4305,-3.4417,-3.4382,-3.4515,-3.4506,-3.4605,-3.4671,-3.4657,-3.4872,-3.4874,-3.4912,-3.4934,-3.4994,-3.5046,-3.5067,0,0,-3.4364,-3.4357,-3.4424,-3.4394,-3.4532,-3.4495,-3.4639,-3.4707,-3.4721,-3.4822,-3.4828,-3.4918,-3.4937,-3.4997,-3.5192,-3.5208,0,0,0,-3.4458,-3.4505,-3.4544,-3.4607,-3.4662,-3.4711,-3.4758,-3.4783,-3.487,-3.4772,-3.4957,-3.4968,-3.5004,-3.5029,-3.5043,-3.5073,-3.4886,-3.4886,-3.4886,-3.461,-3.4624,-3.4735,-3.4765,-3.4826,-3.4874,-3.4924,-3.4965,-3.4961,-3.5004,-3.5034,-3.5151,-3.518,-3.5191,-3.5222,-3.5064,-3.5064,-3.5064,-3.5064,-3.4782,-3.4851,-3.4843,-3.4948,-3.4961,-3.5048,-3.5097,-3.5091,-3.5173,-3.513,-3.5161,-3.5112,-3.5209,-3.5237,-3.5068,-3.5067,-3.5067,-3.5066,-3.5066,-3.4882,-3.4918,-3.4947,-3.504,-3.5109,-3.5136,-3.5215,-3.5224,-3.5233,-3.5265,-3.5296,-3.5296,-3.5295,-3.528,-3.528,-3.5281,-3.5281,-3.5281,-3.5281,-3.4974,-3.5006,-3.5072,-3.5139,-3.518,-3.5236,-3.5285,-3.5325,-3.5372,-3.5372,-3.5372,-3.5362,-3.5217,-3.5179,-3.5288,-3.5287,-3.5286,-3.5285,-3.5285,-3.514,-3.5104,-3.5207,-3.5248,-3.5327,-3.5394,-3.5405,-3.5487,-3.5522,-3.556,-3.5544,-3.5435,-3.5428,-3.5417,-3.5386,-3.5541,-3.5541,-3.5541,-3.5541,-3.5224,-3.5222,-3.5328,-3.5394,-3.5459,-3.548,-3.5593,-3.5632,-3.5665,-3.5687,-3.5667,-3.5626,-3.5615,-3.5615,-3.5599,-3.557,-3.5769,-3.5769,-3.577,-3.5326,-3.5331,-3.5426,-3.546,-3.5522,-3.5575,-3.5681,-3.5755,-3.5786,-3.5779,-3.5704,-3.5695,-3.563,-3.5609,-3.5598,-3.5574,-3.552,0,0]}]]